Palm Springs, CA

9:27 PM PST on February 10, 2016 (GMT -0800)
Palm Springs International

Weather History for KPSP - November, 2011

Change the Weather History Date:

Thursday, November 24, 2011

  Actual Average Record
Temperature  
Mean Temperature 57 °F 61 °F  
Max Temperature 68 °F 73 °F 93 °F (1933)
Min Temperature 46 °F 49 °F 34 °F (1931)
Degree Days  
Heating Degree Days 8 5  
Month to date heating degree days 105 56  
Since 1 July heating degree days 105 60  
Cooling Degree Days 0 1  
Month to date cooling degree days 14 72  
Year to date cooling degree days 4147 4134  
Growing Degree Days 7 (Base 50)    
Moisture  
Dew Point 41 °F    
Average Humidity 59    
Maximum Humidity 82    
Minimum Humidity 35    
Precipitation  
Precipitation 0.00 in 0.02 in 0.90 in (1978)
Month to date precipitation 0.42 0.38  
Year to date precipitation 2.81 4.71  
Since 1 July precipitation 1.34  
Snow  
Snow 0.00 in - - ()
Month to date snowfall 0.0  
Year to date snowfall 0.0  
Snow Depth 0.00 in    
Sea Level Pressure  
Sea Level Pressure 29.95 in    
Wind  
Wind Speed 5 mph (NW)    
Max Wind Speed 20 mph    
Max Gust Speed 25 mph    
Visibility 10 miles    
Events      
T = Trace of Precipitation, MM = Missing Value Source: NWS Daily Summary

Daily Weather History Graph

Daily Weather History Graph

Search for Another Location

Airport or City:

Trip Planner

Search our weather history database for the weather conditions in past years. The results will help you decide how hot, cold, wet, or windy it might be!

Date:

Astronomy

Nov. 24, 2011 Rise Set
Actual Time 6:26 AM PST 4:38 PM PST
Civil Twilight 5:59 AM PST 5:05 PM PST
Nautical Twilight 5:28 AM PST 5:36 PM PST
Astronomical Twilight 4:59 AM PST 6:06 PM PST
Moon 5:48 AM PST (11/24) 4:15 PM PST (11/24)
Length of Visible Light 11h 06m
Length of Day
10h 12m
Waning Crescent, 0% of the Moon is Illuminated
Nov 24
Waning Crescent
Nov 24
New
Dec 2
First Quarter
Dec 10
Full
Dec 17
Last Quarter

Hourly Weather History & Observations

Time (PST) Temp. Windchill Dew Point Humidity Pressure Visibility Wind Dir Wind Speed Gust Speed Precip Events Conditions
12:53 AM 51.1 °F - 41.0 °F 68% 29.89 in 10.0 mi Calm Calm - N/A   Clear
1:53 AM 50.0 °F - 39.9 °F 68% 29.90 in 10.0 mi Calm Calm - N/A   Clear
2:53 AM 50.0 °F - 41.0 °F 71% 29.91 in 10.0 mi Calm Calm - N/A   Clear
3:53 AM 46.0 °F 43.9 °F 41.0 °F 83% 29.91 in 10.0 mi South 4.6 mph - N/A   Clear
5:53 AM 48.0 °F - 41.0 °F 77% 29.94 in 10.0 mi Calm Calm - N/A   Clear
6:53 AM 48.9 °F - 42.1 °F 77% 29.95 in 10.0 mi Calm Calm - N/A   Scattered Clouds
7:53 AM 55.0 °F - 43.0 °F 64% 29.97 in 10.0 mi Calm Calm - N/A   Clear
8:53 AM 59.0 °F - 44.1 °F 58% 29.98 in 10.0 mi Calm Calm - N/A   Clear
9:53 AM 63.0 °F - 42.1 °F 46% 29.99 in 10.0 mi Calm Calm - N/A   Clear
10:53 AM 66.9 °F - 41.0 °F 39% 29.97 in 10.0 mi NW 10.4 mph - N/A   Partly Cloudy
11:53 AM 66.9 °F - 39.9 °F 37% 29.95 in 10.0 mi WNW 6.9 mph - N/A   Clear
12:53 PM 68.0 °F - 39.9 °F 36% 29.94 in 10.0 mi NW 15.0 mph - N/A   Clear
1:53 PM 66.9 °F - 39.9 °F 37% 29.93 in 10.0 mi NW 16.1 mph 21.9 mph N/A   Clear
2:53 PM 66.0 °F - 39.9 °F 38% 29.92 in 10.0 mi NW 12.7 mph 19.6 mph N/A   Clear
3:53 PM 64.0 °F - 39.0 °F 40% 29.93 in 10.0 mi NW 12.7 mph - N/A   Clear
4:53 PM 63.0 °F - 37.9 °F 40% 29.93 in 10.0 mi NW 13.8 mph 20.7 mph N/A   Clear
5:53 PM 63.0 °F - 37.0 °F 38% 29.96 in 10.0 mi NW 9.2 mph - N/A   Clear
6:53 PM 60.1 °F - 39.9 °F 47% 29.98 in 10.0 mi Calm Calm - N/A   Clear
7:53 PM 55.0 °F - 41.0 °F 59% 29.99 in 10.0 mi Calm Calm - N/A   Clear
8:53 PM 55.0 °F - 39.9 °F 57% 30.00 in 10.0 mi Calm Calm - N/A   Clear
9:53 PM 53.1 °F - 42.1 °F 66% 30.01 in 10.0 mi South 4.6 mph - N/A   Clear
10:53 PM 54.0 °F - 39.9 °F 59% 30.03 in 10.0 mi Calm Calm - N/A   Clear